Regional Weather Roundup
Issued by NWS

Home | Current Version | Previous Version | Graphics & Text | Print | Product List | Glossary Off
Versions: 1 2 3 4 5 6 7 8 9 10 11 12 13 14 15 16 17 18 19 20 21 22 23 24 25 26 27 28 29 30 31 32 33 34 35 36 37 38 39 40 41 42 43 44 45 46 47 48 49 50

000
ASUS43 KDMX 020407
RWRIA

WEATHER ROUNDUP FOR IOWA
NATIONAL WEATHER SERVICE DES MOINES IA
1100 PM CDT MON SEP 01 2014

NOTE: "FAIR" INDICATES FEW OR NO CLOUDS BELOW 12,000 FEET WITH NO
SIGNIFICANT WEATHER AND/OR OBSTRUCTIONS TO VISIBILITY.

* - THESE STATIONS ARE NOT NWS STATIONS...THUS NOT UNDER NWS
QUALITY CONTROL.  THEY ALSO DO NOT REPORT WEATHER SUCH
AS PRECIPITATION OR FOG.

IAZ001>003-012>014-020>022-031>034-043>046-020500-
   NORTHWEST IOWA

CITY           SKY/WX    TMP DP  RH WIND       PRES   REMARKS
CARROLL *      CLEAR     61  61 100 CALM      29.87S
CHEROKEE *     CLEAR     61  61 100 CALM      29.88S
DENISON *      CLEAR     63  63 100 CALM      29.86S
LE MARS *        N/A     63  61  94 CALM      29.88S
ORANGE CITY *  CLEAR     63  57  82 CALM      29.88S
SHELDON *      CLEAR     59  57  94 CALM      29.86F
SIOUX CITY     MOCLDY    65  63  93 W3        29.88R
SPENCER        CLEAR     57  55  93 W7        29.87S
STORM LAKE *   CLEAR     63  63 100 SW5       29.88S
$$

IAZ055>058-069>071-079>083-090>094-020500-
   SOUTHWEST IOWA

CITY           SKY/WX    TMP DP  RH WIND       PRES   REMARKS
ATLANTIC *     CLEAR     63  61  94 CALM      29.87R
AUDUBON *      CLEAR     63  61  94 CALM      29.89R
CLARINDA *     PTCLDY    68  66  94 CALM      29.90R
COUNCIL BLFS * CLEAR     68  64  88 CALM      29.87S
CRESTON *      CLEAR     66  64  94 CALM      29.89S
HARLAN  *      CLEAR     61  61 100 NE3       29.91S
LAMONI         MOCLDY    66  64  93 CALM      29.88R
RED OAK *      PTCLDY    63  63 100 CALM      29.89R
SHENANDOAH *   CLOUDY    66  66 100 CALM      29.90R
$$

IAZ047>049-059>061-072>074-084-020500-
   CENTRAL IOWA

CITY           SKY/WX    TMP DP  RH WIND       PRES   REMARKS
AMES           CLEAR     63  61  93 SW6       29.86R
ANKENY *       CLEAR     64  63  94 CALM      29.86S
CHARITON *     MOCLDY    66  66 100 CALM      29.88R
DES MOINES     PTCLDY    70  63  78 SW5       29.86S
GRINNELL*      MOCLDY    64  61  88 CALM      29.87S
KNOXVILLE *    MOCLDY    68  64  88 CALM      29.86R
MARSHALLTOWN   CLEAR     65  62  90 CALM      29.86R
PELLA *        MOCLDY    68  66  94 CALM      29.88S
PERRY *          N/A     63  63 100 W5        29.86S
$$

IAZ004>006-015-016-023>025-035-036-020500-
   NORTH CENTRAL IOWA

CITY           SKY/WX    TMP DP  RH WIND       PRES   REMARKS
ALGONA *       CLEAR     63  59  88 SW5       29.86S
CLARION *      CLEAR     61  59  94 CALM      29.86S
ESTHERVILLE    CLEAR     59  58  96 W6        29.86S
FORT DODGE *   CLEAR     61  59  94 CALM      29.87S
MASON CITY     CLEAR     59  58  96 CALM      29.87S
FOREST CITY *  CLEAR     59  59 100 CALM      29.85F
IOWA FALLS *     N/A     63  59  88 CALM      29.87S
$$

IAZ007>011-017>019-026>030-037>042-050>054-066-020500-
   NORTHEAST IOWA

CITY           SKY/WX    TMP DP  RH WIND       PRES   REMARKS
CEDAR RAPIDS   CLOUDY    67  66  97 CALM      29.85S
CHARLES CITY * CLEAR     61  59  94 W3        29.86S
CLINTON *      CLOUDY    66  64  94 SW5       29.89S
DECORAH *      CLEAR     63  59  88 CALM      29.84S
DUBUQUE        CLOUDY    65  63  93 S3        29.86S
MONTICELLO *   CLEAR     66  66 100 CALM      29.86R
OELWEIN *      CLEAR     64  61  88 NW5       29.86S
WATERLOO       PTCLDY    64  61  90 CALM      29.83F
$$

IAZ064-065-067-068-078-020500-
   EAST CENTRAL IOWA

CITY           SKY/WX    TMP DP  RH WIND       PRES   REMARKS
DAVENPORT      CLOUDY    69  66  90 W6        29.89R
IOWA CITY      CLOUDY    70  66  87 CALM      29.85F
MT. PLEASANT * MOCLDY    70  66  88 CALM      29.87F
MUSCATINE *    PTCLDY    72  68  88 CALM      29.88R
QUAD CITIES    CLOUDY    70  66  87 S5        29.88R
$$

IAZ062-063-075>077-085>089-095>099-020500-
   SOUTHEAST IOWA

CITY           SKY/WX    TMP DP  RH WIND       PRES   REMARKS
BURLINGTON     CLOUDY    71  69  93 CALM      29.88S
FAIRFIELD *    MOCLDY    68  66  94 SE7       29.85F
FORT MADISON * CLEAR     72  70  94 CALM      29.89F
KEOKUK *       CLEAR     73  70  88 CALM      29.88F
OSKALOOSA *      N/A     66  64  94 W3        29.88R
CENTERVILLE *  CLEAR     66  66 100 CALM      29.88F
OTTUMWA        MOCLDY    68  65  90 S6        29.86F
WASHINGTON *   PTCLDY    68  68 100 SE9       29.85F
$$

ABBREVIATIONS USED IN REMARKS
   TC - TEMPERATURES IN CELSIUS
  WCI - WIND CHILL INDEX
   HX - HEAT INDEX
  VSB - VISIBILITY
$$




USA.gov is the U.S. government's official web portal to all federal, state and local government web resources and services.